Regional Weather Roundup
Issued by NWS

Home | Current Version | Previous Version | Text Only | Print | Product List | Glossary Off
Versions: 1 2 3 4 5 6 7 8 9 10 11 12 13 14 15 16 17 18 19 20 21 22 23 24 25 26 27 28 29 30 31 32 33 34 35 36 37 38 39 40 41 42 43 44 45 46 47 48 49 50

341
ASUS45 KBOI 212310
RWRID

IDAHO REGIONAL WEATHER ROUNDUP
NATIONAL WEATHER SERVICE BOISE ID
500 PM MDT THU SEP 21 2017

NOTE: "FAIR" INDICATES FEW OR NO CLOUDS BELOW 12000 FEET
WITH NO SIGNIFICANT WEATHER AND/OR OBSTRUCTIONS TO VISIBILITY

IDZ012-014-220000-
SOUTHWEST IDAHO


CITY           SKY/WX    TMP DP  RH WIND       PRES   REMARKS
BOISE          CLOUDY    57  33  40 NW15      29.79F
CALDWELL       CLOUDY    60  33  36 NW10      29.80F
MOUNTAIN HOME  PTSUNNY   55  38  52 N10       29.76F
$$

IDZ016-017-220000-
SOUTHCENTRAL IDAHO


CITY           SKY/WX    TMP DP  RH WIND       PRES   REMARKS
BURLEY         CLOUDY    46  40  79 NW7       29.79S
JEROME         CLOUDY    46  41  82 SW5       29.80F
TWIN FALLS     CLOUDY    45  39  79 W9        29.80R
$$

IDZ019>023-220000-
SOUTHEAST IDAHO


CITY           SKY/WX    TMP DP  RH WIND       PRES   REMARKS
IDAHO FALLS    CLOUDY    42  38  85 CALM      29.82F
POCATELLO      LGT RAIN  41  39  93 E8        29.80F
REXBURG        CLOUDY    42  38  85 NE5       29.81F
$$

IDZ006-010-011-018-031-032-220000-
CENTRAL IDAHO MOUNTAINS


CITY           SKY/WX    TMP DP  RH WIND       PRES   REMARKS
MCCALL         CLOUDY    47  31  53 NW12      29.80S
HAILEY         CLOUDY    43  37  81 SE3       29.80F
STANLEY          N/A     37  32  82 N7        29.82S WCI  32
SALMON         PTSUNNY   53  25  33 CALM      29.82R
CHALLIS        CLOUDY    47  31  53 SE7       29.79R
$$

IDZ002-004-006-007-026-220000-
NORTHERN IDAHO


CITY           SKY/WX    TMP DP  RH WIND       PRES   REMARKS
LEWISTON       MOSUNNY   59  40  49 N7        29.87F
LOWELL           N/A     61  39  44 VRB3      29.88F
COEUR D`ALENE  CLOUDY    49  41  74 CALM      29.93R
MULLAN PASS    FOG       33  31  92 N3        29.89R VSB 1/4
$$




USA.gov is the U.S. government's official web portal to all federal, state and local government web resources and services.